User: anonymous
Location: Unspecified
(0.0000°N, 0.0000°E)
Time: 02:56:51
(UTC+02:00)
Language:

Cosmos 1072 Rocket - Orbit

View from above orbital plane
View from above orbital plane
View from above satellite
View from above satellite

Ground track
Ground track

The orbit data is extracted from the following two-line orbital elements,

1 11239U 79003B   14210.43865280  .00000037  00000-0  22085-4 0  3387
2 11239 082.9406 150.6874 0042323 096.2001 042.7680 13.75726702782969
Epoch (UTC): 29 July 2014 10:31:39
Eccentricity: 0.0042323
inclination: 82.9406°
perigee height: 948 km
apogee height: 1010 km
right ascension of ascending node: 150.6874°
argument of perigee: 96.2001°
revolutions per day: 13.75726702
mean anomaly at epoch: 42.7680°
orbit number at epoch: 78296

The dashed part of the orbit path shows where the satellite is in the earth's shadow,  

DLR